Location: *
(51.0333°S, 178.4667°E)
Time: 23:55:27
(UTC+00:00)

Lacrosse 5 - Pass Details

Date: 15 November 2019
Orbit: 715 x 724 km, 57.0° (Epoch: 30 November)

Event Time Altitude Azimuth Distance (km) Brightness Sun altitude
Rises 08:57:26 0° 245° (WSW) 3,162 6.5 -10.8°
Reaches altitude 10° 08:59:53 10° 240° (WSW) 2,241 5.7 -11.1°
Maximum altitude 09:04:58 54° 162° (SSE) 892 2.6 -11.6°
Drops below altitude 10° 09:10:02 10° 84° (E) 2,236 4.0 -12.1°
Enters shadow 09:10:37 - 83° (E) 2,455 4.2 -12.2°
